Powrót do katalogu

COSMOS 886 DEB *

AktywnyLEO
NORAD 13943·DEBRIS·🇷🇺 Russia

Wystrzelony Dec 27, 1976 z Baikonur Cosmodrome

Loading…

Następne Przeloty (najbliższe 24 godziny)

TLE

ŚwieżeSource: Space-Track

Epoka: Sep 14, 2026, 03:56 UTC

1 13943U 76126BM  26257.16428654  .00003258  00000-0  10794-2 0  9991
2 13943  65.5748  48.0023 0067122 248.0539 287.0384 14.37943006156105

Śledź COSMOS 886 DEB * w czasie rzeczywistym z AllMySat

Download on the App Store